Regional Weather Roundup
Issued by NWS State College, PA

Home | Current Version | Previous Version | Text Only | Print | Product List | Glossary Off
Versions: 1 2 3 4 5 6 7 8 9 10 11 12 13 14 15 16 17 18 19 20 21 22 23 24 25 26 27 28 29 30 31 32 33 34 35 36 37 38 39 40 41 42 43 44 45 46 47 48 49 50

000
ASUS41 KCTP 271910
RWRCTP

REGIONAL WEATHER ROUNDUP
NATIONAL WEATHER SERVICE STATE COLLEGE PA
300 PM EDT THU APR 27 2017

Note: "fair" indicates few or no clouds below 12,000 feet with no
significant weather and/or obstructions to visibility.

* = STATION THAT DOES NOT REPORT PRECIPITATION /E.G. RAIN...SNOW...ETC/
    THUNDER OR FOG.

PAZ002>004-007>009-013>016-020>023-029>032-272000-
WESTERN PENNSYLVANIA

CITY           SKY/WX    TMP DP  RH WIND       PRES   REMARKS
ERIE           PTSUNNY   82  52  35 S20       29.57F
MEADVILLE      PTSUNNY   79  53  40 S10G24    29.62S
FRANKLIN*      MOSUNNY   81  54  39 S15G21    29.65F
NEW CASTLE     MOCLDY    81  55  40 S12G20    29.62F
BEAVER COUNTY  SUNNY     79  54  41 SW15G22   29.63F
BUTLER*        PTSUNNY   81  54  39 S9        29.65F
PITTSBURGH INT CLOUDY    81  51  35 SW20G25   29.64F
PITTSBURGH     MOSUNNY   81  49  32 S15G28    29.64F
INDIANA*       SUNNY     79  59  50 S13G18    29.70F
LATROBE        PTSUNNY   82  55  39 SW9       29.66F
WASHINGTON CO* CLOUDY    79  52  38 SW10G25   29.68R
$$

PAZ004>006-010>012-017>019-024>028-033>037-041-042-045-046-049>053-272000-
CENTRAL PENNSYLVANIA

CITY           SKY/WX    TMP DP  RH WIND       PRES   REMARKS
BRADFORD       SUNNY     75  58  55 S10G23    29.70F
DUBOIS         SUNNY     76  55  48 SE9G21    29.69F
CLEARFIELD     SUNNY     75  58  55 VRB7G17   29.73R
JOHNSTOWN      MOSUNNY   72  60  66 SE14      29.73F
ALTOONA        SUNNY     76  62  62 SE14G21   29.74F
STATE COLLEGE  MOSUNNY   70  59  68 SE12      29.75F
WILLIAMSPORT   PTSUNNY   72  61  68 CALM      29.75F
SELINSGROVE    PTSUNNY   75  64  68 S8        29.76F
FT INDIANTOWN  CLOUDY    77  65  66 S9G17     29.78F
CAPITAL CITY   PTSUNNY   80  61  52 S9G18     29.77F
HARRISBURG     CLOUDY    78  62  57 S7        29.76F
YORK           CLOUDY    79  63  57 SW8       29.78F
$$

PAZ038>040-043-044-047-048-054-055-060>062-067>071-272000-
EASTERN PENNSYLVANIA

CITY           SKY/WX    TMP DP  RH WIND       PRES   REMARKS
SCRANTON       CLOUDY    79  59  50 S12G23    29.78F
MOUNT POCONO   CLOUDY    66  60  81 SE13      29.86F
ALLENTOWN      CLOUDY    79  61  53 SE10      29.82F
QUAKERTOWN*    CLOUDY    77  63  61 S9        29.83F
READING        CLOUDY    81  64  56 SE9       29.78F
LANCASTER      CLOUDY    77  65  66 S13       29.79F
COATESVILLE    CLOUDY    77  64  65 S10       29.83F
POTTSTOWN      CLOUDY    77  62  59 S8        29.83F
BLUE BELL      CLOUDY    77  64  65 S8        29.83F
DOYLESTOWN     CLOUDY    76  64  66 VRB6      29.83F
WILLOW GROVE   NOT AVBL
NORTH PHILA    MOSUNNY   80  63  55 VRB5      29.84F
PHILADELPHIA   CLOUDY    80  63  55 S9        29.82F
$$




USA.gov is the U.S. government's official web portal to all federal, state and local government web resources and services.